Tracking 31028 objects as of 18-Jul-2025
HD Live streaming from Space Station
objects crossing your sky now

ONEWEB-0351

Track ONEWEB-0351 now!
10-day predictions
ONEWEB-0351 is classified as:


NORAD ID: 49215
Int'l Code: 2021-083AF
Perigee: 1,187.0 km
Apogee: 1,190.8 km
Inclination: 87.9 °
Period: 109.0 minutes
Semi major axis: 7559 km
RCS: Unknown
Launch date: September 14, 2021
Source: United Kingdom (UK)
Launch site: TYURATAM MISSILE AND SPACE COMPLEX (TTMTR)
Your satellite tracking list
Your tracking list is empty




NASA's NSSDC Master Catalog

Two Line Element Set (TLE):
1 49215U 21083AF  25198.41418107  .00000144  00000-0  32120-3 0  9996
2 49215  87.9279 341.1195 0002493  82.3727 277.7689 13.20772615192581
Source of the keplerian elements: AFSPC